Time,TemperatureF,DewpointF,PressureIn,WindDirection,WindDirectionDegrees,WindSpeedMPH,WindSpeedGustMPH,Humidity,HourlyPrecipIn,Conditions,Clouds,dailyrainin,SoftwareType,DateUTC
2013-02-17 00:02:00,25.0,9.0,29.88,NE,45,5.0,15.0,51,0.00,,,0.01,,2013-02-17 05:02:00,
2013-02-17 00:12:00,25.0,9.0,29.88,NE,45,5.0,15.0,51,0.00,,,0.01,,2013-02-17 05:12:00,
2013-02-17 00:22:00,24.0,9.0,29.86,North,351,4.0,15.0,53,0.00,,,0.01,,2013-02-17 05:22:00,
2013-02-17 00:33:00,24.0,9.0,29.85,NE,50,8.0,14.0,51,0.00,,,0.01,,2013-02-17 05:33:00,
2013-02-17 00:42:00,24.0,9.0,29.85,NE,50,8.0,14.0,51,0.00,,,0.01,,2013-02-17 05:42:00,
2013-02-17 00:52:00,24.0,9.0,29.84,North,2,7.0,18.0,52,0.00,,,0.01,,2013-02-17 05:52:00,
2013-02-17 01:02:00,24.0,9.0,29.83,NNW,343,3.0,13.0,52,0.00,,,0.01,,2013-02-17 06:02:00,
2013-02-17 01:11:00,24.0,9.0,29.83,NNW,343,3.0,13.0,52,0.00,,,0.01,,2013-02-17 06:11:00,
2013-02-17 01:21:00,23.0,8.0,29.83,WNW,303,4.0,16.0,51,0.00,,,0.01,,2013-02-17 06:21:00,
2013-02-17 01:32:00,23.0,8.0,29.83,NNW,345,6.0,15.0,51,0.00,,,0.01,,2013-02-17 06:32:00,
2013-02-17 01:42:00,23.0,8.0,29.83,NNW,345,6.0,15.0,51,0.00,,,0.01,,2013-02-17 06:42:00,
2013-02-17 01:51:00,23.0,8.0,29.83,North,5,5.0,14.0,51,0.00,,,0.01,,2013-02-17 06:51:00,
2013-02-17 02:01:00,23.0,8.0,29.82,NNW,327,4.0,15.0,51,0.00,,,0.01,,2013-02-17 07:01:00,
2013-02-17 02:11:00,23.0,8.0,29.82,NNW,327,4.0,15.0,51,0.00,,,0.01,,2013-02-17 07:11:00,
2013-02-17 02:21:00,23.0,7.0,29.81,NNE,28,6.0,13.0,50,0.00,,,0.01,,2013-02-17 07:21:00,
2013-02-17 02:32:00,23.0,7.0,29.81,NNE,16,6.0,14.0,50,0.00,,,0.01,,2013-02-17 07:32:00,
2013-02-17 02:42:00,23.0,7.0,29.81,NNE,16,6.0,14.0,50,0.00,,,0.01,,2013-02-17 07:42:00,
2013-02-17 02:51:00,22.0,7.0,29.80,NNE,33,4.0,9.0,51,0.00,,,0.01,,2013-02-17 07:51:00,
2013-02-17 03:01:00,22.0,7.0,29.80,NNW,341,4.0,13.0,51,0.00,,,0.01,,2013-02-17 08:01:00,
2013-02-17 03:11:00,22.0,7.0,29.80,NNW,341,4.0,13.0,51,0.00,,,0.01,,2013-02-17 08:11:00,
2013-02-17 03:21:00,22.0,6.0,29.80,NNW,343,6.0,11.0,50,0.00,,,0.01,,2013-02-17 08:21:00,
2013-02-17 03:32:00,22.0,7.0,29.80,NNE,17,7.0,17.0,51,0.00,,,0.01,,2013-02-17 08:32:00,
2013-02-17 03:42:00,22.0,7.0,29.80,NNE,17,7.0,17.0,51,0.00,,,0.01,,2013-02-17 08:42:00,
2013-02-17 03:52:00,22.0,7.0,29.80,NNE,33,7.0,15.0,51,0.00,,,0.01,,2013-02-17 08:52:00,
2013-02-17 04:02:00,22.0,7.0,29.80,North,355,4.0,15.0,52,0.00,,,0.01,,2013-02-17 09:02:00,
2013-02-17 04:11:00,22.0,7.0,29.80,North,355,4.0,15.0,52,0.00,,,0.01,,2013-02-17 09:11:00,
2013-02-17 04:21:00,22.0,8.0,29.79,North,7,5.0,11.0,53,0.00,,,0.01,,2013-02-17 09:21:00,
2013-02-17 04:32:00,21.0,7.0,29.78,NNE,23,3.0,9.0,55,0.00,,,0.01,,2013-02-17 09:32:00,
2013-02-17 04:42:00,21.0,7.0,29.78,NNE,23,3.0,9.0,55,0.00,,,0.01,,2013-02-17 09:42:00,
2013-02-17 04:51:00,21.0,8.0,29.78,North,355,2.0,13.0,57,0.00,,,0.01,,2013-02-17 09:51:00,
2013-02-17 05:01:00,21.0,8.0,29.78,NNW,330,5.0,14.0,57,0.00,,,0.01,,2013-02-17 10:01:00,
2013-02-17 05:11:00,21.0,8.0,29.78,NNW,330,5.0,14.0,57,0.00,,,0.01,,2013-02-17 10:11:00,
2013-02-17 05:21:00,20.0,8.0,29.78,NNE,21,3.0,10.0,60,0.00,,,0.01,,2013-02-17 10:21:00,
2013-02-17 05:32:00,20.0,8.0,29.78,NW,308,4.0,10.0,60,0.00,,,0.01,,2013-02-17 10:32:00,
2013-02-17 05:42:00,20.0,8.0,29.78,NW,308,4.0,10.0,60,0.00,,,0.01,,2013-02-17 10:42:00,
2013-02-17 05:52:00,20.0,8.0,29.78,North,358,3.0,12.0,60,0.00,,,0.01,,2013-02-17 10:52:00,
2013-02-17 06:01:00,20.0,8.0,29.78,NNE,30,6.0,11.0,60,0.00,,,0.01,,2013-02-17 11:01:00,
2013-02-17 06:11:00,20.0,8.0,29.78,NNE,30,6.0,11.0,60,0.00,,,0.01,,2013-02-17 11:11:00,
2013-02-17 06:22:00,20.0,8.0,29.77,NNE,26,6.0,16.0,59,0.00,,,0.01,,2013-02-17 11:22:00,
2013-02-17 06:32:00,19.0,7.0,29.76,NNE,24,8.0,15.0,60,0.00,,,0.01,,2013-02-17 11:32:00,
2013-02-17 06:42:00,19.0,7.0,29.76,NNE,24,8.0,15.0,60,0.00,,,0.01,,2013-02-17 11:42:00,
2013-02-17 06:52:00,19.0,8.0,29.75,North,349,4.0,12.0,62,0.00,,,0.01,,2013-02-17 11:52:00,
2013-02-17 07:03:00,19.0,8.0,29.75,North,351,6.0,12.0,62,0.00,,,0.01,,2013-02-17 12:03:00,
2013-02-17 07:11:00,19.0,8.0,29.75,North,351,6.0,12.0,62,0.00,,,0.01,,2013-02-17 12:11:00,
2013-02-17 07:22:00,19.0,9.0,29.75,North,6,3.0,15.0,63,0.00,,,0.01,,2013-02-17 12:22:00,
2013-02-17 07:32:00,19.0,9.0,29.76,NE,55,6.0,14.0,63,0.00,,,0.01,,2013-02-17 12:32:00,
2013-02-17 07:42:00,19.0,9.0,29.76,NE,55,6.0,14.0,63,0.00,,,0.01,,2013-02-17 12:42:00,
2013-02-17 07:52:00,18.0,8.0,29.75,NNE,23,7.0,13.0,63,0.00,,,0.01,,2013-02-17 12:52:00,
2013-02-17 08:02:00,18.0,8.0,29.75,NE,38,6.0,14.0,64,0.00,,,0.01,,2013-02-17 13:02:00,
2013-02-17 08:12:00,18.0,8.0,29.75,NE,38,6.0,14.0,64,0.00,,,0.01,,2013-02-17 13:12:00,
2013-02-17 08:22:00,18.0,8.0,29.74,North,355,7.0,15.0,63,0.00,,,0.01,,2013-02-17 13:22:00,
2013-02-17 08:32:00,18.0,8.0,29.74,NE,45,7.0,14.0,63,0.00,,,0.01,,2013-02-17 13:32:00,
2013-02-17 08:42:00,18.0,8.0,29.74,NE,45,7.0,14.0,63,0.00,,,0.01,,2013-02-17 13:42:00,
2013-02-17 08:51:00,18.0,8.0,29.74,NNW,327,5.0,12.0,63,0.00,,,0.01,,2013-02-17 13:51:00,
2013-02-17 09:01:00,18.0,7.0,29.73,North,6,6.0,15.0,62,0.00,,,0.01,,2013-02-17 14:01:00,
2013-02-17 09:11:00,18.0,7.0,29.73,North,6,6.0,15.0,62,0.00,,,0.01,,2013-02-17 14:11:00,
2013-02-17 09:22:00,18.0,7.0,29.73,NE,44,6.0,13.0,61,0.00,,,0.01,,2013-02-17 14:22:00,
2013-02-17 09:32:00,18.0,7.0,29.73,North,1,4.0,13.0,61,0.00,,,0.01,,2013-02-17 14:32:00,
2013-02-17 09:42:00,18.0,7.0,29.73,North,1,4.0,13.0,61,0.00,,,0.01,,2013-02-17 14:42:00,
2013-02-17 09:52:00,18.0,7.0,29.73,North,1,4.0,13.0,61,0.00,,,0.01,,2013-02-17 14:52:00,
2013-02-17 10:02:00,18.0,7.0,29.73,North,1,4.0,13.0,61,0.00,,,0.01,,2013-02-17 15:02:00,
2013-02-17 10:11:00,18.0,7.0,29.73,North,1,4.0,13.0,61,0.00,,,0.01,,2013-02-17 15:11:00,
2013-02-17 10:22:00,20.0,7.0,29.72,NNW,342,6.0,12.0,56,0.00,,,0.01,,2013-02-17 15:22:00,
2013-02-17 10:32:00,20.0,5.0,29.72,NNE,23,3.0,14.0,51,0.00,,,0.01,,2013-02-17 15:32:00,
2013-02-17 10:42:00,20.0,5.0,29.72,NNE,23,3.0,14.0,51,0.00,,,0.01,,2013-02-17 15:42:00,
2013-02-17 10:52:00,21.0,4.0,29.71,NNE,23,7.0,15.0,48,0.00,,,0.01,,2013-02-17 15:52:00,
2013-02-17 11:01:00,21.0,4.0,29.70,NNW,333,5.0,14.0,48,0.00,,,0.01,,2013-02-17 16:01:00,
2013-02-17 11:12:00,21.0,4.0,29.70,NNW,333,5.0,14.0,48,0.00,,,0.01,,2013-02-17 16:12:00,
2013-02-17 11:22:00,22.0,5.0,29.70,NW,324,5.0,12.0,48,0.00,,,0.01,,2013-02-17 16:22:00,
2013-02-17 11:32:00,23.0,7.0,29.70,NW,317,4.0,11.0,49,0.00,,,0.01,,2013-02-17 16:32:00,
2013-02-17 11:42:00,23.0,7.0,29.70,NW,317,4.0,11.0,49,0.00,,,0.01,,2013-02-17 16:42:00,
2013-02-17 11:52:00,23.0,6.0,29.70,NW,318,4.0,12.0,48,0.00,,,0.01,,2013-02-17 16:52:00,
2013-02-17 12:02:00,24.0,6.0,29.70,NNW,327,9.0,19.0,45,0.00,,,0.01,,2013-02-17 17:02:00,
2013-02-17 12:11:00,24.0,6.0,29.70,NNW,327,9.0,19.0,45,0.00,,,0.01,,2013-02-17 17:11:00,
2013-02-17 12:21:00,24.0,5.0,29.70,WNW,298,6.0,17.0,44,0.00,,,0.01,,2013-02-17 17:21:00,
2013-02-17 12:32:00,24.0,5.0,29.69,NW,304,7.0,15.0,44,0.00,,,0.01,,2013-02-17 17:32:00,
2013-02-17 12:42:00,24.0,5.0,29.69,NW,304,7.0,15.0,44,0.00,,,0.01,,2013-02-17 17:42:00,
2013-02-17 12:52:00,24.0,6.0,29.69,WNW,294,7.0,18.0,45,0.00,,,0.01,,2013-02-17 17:52:00,
2013-02-17 13:02:00,24.0,4.0,29.68,WNW,287,8.0,15.0,42,0.00,,,0.01,,2013-02-17 18:02:00,
2013-02-17 13:11:00,24.0,4.0,29.68,WNW,287,8.0,15.0,42,0.00,,,0.01,,2013-02-17 18:11:00,
2013-02-17 13:22:00,24.0,4.0,29.68,NNE,17,7.0,19.0,42,0.00,,,0.00,,2013-02-17 18:22:00,
2013-02-17 13:33:00,25.0,5.0,29.68,NW,323,9.0,20.0,41,0.00,,,0.00,,2013-02-17 18:33:00,
2013-02-17 13:42:00,25.0,5.0,29.68,NW,323,9.0,20.0,41,0.00,,,0.00,,2013-02-17 18:42:00,
2013-02-17 13:52:00,24.0,3.0,29.69,NW,312,11.0,22.0,39,0.00,,,0.00,,2013-02-17 18:52:00,
2013-02-17 14:01:00,25.0,5.0,29.68,WNW,298,4.0,23.0,42,0.00,,,0.00,,2013-02-17 19:01:00,
2013-02-17 14:11:00,25.0,5.0,29.68,WNW,298,4.0,23.0,42,0.00,,,0.00,,2013-02-17 19:11:00,
2013-02-17 14:22:00,24.0,4.0,29.68,WNW,285,6.0,16.0,41,0.00,,,0.00,,2013-02-17 19:22:00,
2013-02-17 14:32:00,24.0,3.0,29.69,WNW,289,11.0,27.0,39,0.00,,,0.00,,2013-02-17 19:32:00,
2013-02-17 14:42:00,24.0,3.0,29.69,WNW,289,11.0,27.0,39,0.00,,,0.00,,2013-02-17 19:42:00,
2013-02-17 14:52:00,24.0,2.0,29.70,WNW,296,10.0,23.0,38,0.00,,,0.00,,2013-02-17 19:52:00,
2013-02-17 15:02:00,24.0,2.0,29.71,West,279,9.0,20.0,38,0.00,,,0.00,,2013-02-17 20:02:00,
2013-02-17 15:11:00,24.0,2.0,29.71,West,279,9.0,20.0,38,0.00,,,0.00,,2013-02-17 20:11:00,
2013-02-17 15:22:00,24.0,1.0,29.71,NW,305,13.0,25.0,36,0.00,,,0.00,,2013-02-17 20:22:00,
2013-02-17 15:32:00,24.0,2.0,29.72,WNW,303,10.0,18.0,37,0.00,,,0.00,,2013-02-17 20:32:00,
2013-02-17 15:42:00,24.0,2.0,29.72,WNW,303,10.0,18.0,37,0.00,,,0.00,,2013-02-17 20:42:00,
2013-02-17 15:52:00,23.0,1.0,29.71,WSW,250,13.0,23.0,38,0.00,,,0.00,,2013-02-17 20:52:00,
2013-02-17 16:02:00,23.0,1.0,29.72,NNW,334,9.0,24.0,38,0.00,,,0.00,,2013-02-17 21:02:00,
2013-02-17 16:11:00,23.0,1.0,29.72,NNW,334,9.0,24.0,38,0.00,,,0.00,,2013-02-17 21:11:00,
2013-02-17 16:21:00,22.0,0.0,29.73,NW,306,12.0,24.0,37,0.00,,,0.00,,2013-02-17 21:21:00,
2013-02-17 16:32:00,22.0,1.0,29.74,West,267,12.0,26.0,40,0.00,,,0.00,,2013-02-17 21:32:00,
2013-02-17 16:42:00,22.0,1.0,29.74,West,267,12.0,26.0,40,0.00,,,0.00,,2013-02-17 21:42:00,
2013-02-17 16:53:00,21.0,3.0,29.75,NW,315,10.0,17.0,45,0.00,,,0.00,,2013-02-17 21:53:00,
2013-02-17 17:01:00,21.0,4.0,29.76,NNW,346,8.0,17.0,48,0.00,,,0.00,,2013-02-17 22:01:00,
2013-02-17 17:12:00,21.0,4.0,29.76,NNW,346,8.0,17.0,48,0.00,,,0.00,,2013-02-17 22:12:00,
2013-02-17 17:22:00,20.0,4.0,29.77,NW,320,9.0,19.0,49,0.00,,,0.00,,2013-02-17 22:22:00,
2013-02-17 17:32:00,19.0,4.0,29.78,NW,317,6.0,23.0,51,0.00,,,0.00,,2013-02-17 22:32:00,
2013-02-17 17:42:00,19.0,4.0,29.78,NW,317,6.0,23.0,51,0.00,,,0.00,,2013-02-17 22:42:00,
2013-02-17 17:52:00,18.0,3.0,29.81,NNW,346,11.0,26.0,51,0.00,,,0.00,,2013-02-17 22:52:00,
2013-02-17 18:02:00,18.0,3.0,29.82,West,280,9.0,25.0,52,0.00,,,0.00,,2013-02-17 23:02:00,
2013-02-17 18:11:00,18.0,3.0,29.82,West,280,9.0,25.0,52,0.00,,,0.00,,2013-02-17 23:11:00,
2013-02-17 18:21:00,17.0,3.0,29.83,WNW,303,6.0,16.0,53,0.00,,,0.00,,2013-02-17 23:21:00,
2013-02-17 18:32:00,17.0,3.0,29.84,West,275,7.0,20.0,54,0.00,,,0.00,,2013-02-17 23:32:00,
2013-02-17 18:42:00,17.0,3.0,29.84,West,275,7.0,20.0,54,0.00,,,0.00,,2013-02-17 23:42:00,
2013-02-17 18:52:00,17.0,4.0,29.85,NW,324,5.0,22.0,55,0.00,,,0.00,,2013-02-17 23:52:00,
2013-02-17 19:02:00,16.0,2.0,29.86,West,273,8.0,22.0,53,0.00,,,0.00,,2013-02-18 00:02:00,
2013-02-17 19:12:00,16.0,2.0,29.86,West,273,8.0,22.0,53,0.00,,,0.00,,2013-02-18 00:12:00,
2013-02-17 19:22:00,16.0,2.0,29.87,WNW,298,7.0,22.0,54,0.00,,,0.00,,2013-02-18 00:22:00,
2013-02-17 19:32:00,15.0,2.0,29.88,NW,313,9.0,22.0,55,0.00,,,0.00,,2013-02-18 00:32:00,
2013-02-17 19:42:00,15.0,2.0,29.88,NW,313,9.0,22.0,55,0.00,,,0.00,,2013-02-18 00:42:00,
2013-02-17 19:52:00,15.0,2.0,29.88,WNW,297,9.0,19.0,56,0.00,,,0.00,,2013-02-18 00:52:00,
2013-02-17 20:01:00,15.0,2.0,29.89,NNW,336,7.0,16.0,55,0.00,,,0.00,,2013-02-18 01:01:00,
2013-02-17 20:12:00,15.0,2.0,29.89,NNW,336,7.0,16.0,55,0.00,,,0.00,,2013-02-18 01:12:00,
2013-02-17 20:21:00,15.0,2.0,29.90,NNW,336,7.0,18.0,55,0.00,,,0.00,,2013-02-18 01:21:00,
2013-02-17 20:32:00,15.0,2.0,29.90,NNW,336,7.0,18.0,55,0.00,,,0.00,,2013-02-18 01:32:00,
2013-02-17 20:42:00,15.0,2.0,29.90,NNW,336,7.0,18.0,55,0.00,,,0.00,,2013-02-18 01:42:00,
2013-02-17 20:52:00,14.0,1.0,29.91,NW,313,6.0,15.0,56,0.00,,,0.00,,2013-02-18 01:52:00,
2013-02-17 21:02:00,14.0,1.0,29.91,NW,306,10.0,20.0,56,0.00,,,0.00,,2013-02-18 02:02:00,
2013-02-17 21:11:00,14.0,1.0,29.91,NW,306,10.0,20.0,56,0.00,,,0.00,,2013-02-18 02:11:00,
2013-02-17 21:22:00,14.0,2.0,29.92,NW,308,6.0,15.0,57,0.00,,,0.00,,2013-02-18 02:22:00,
2013-02-17 21:32:00,14.0,2.0,29.92,NW,321,6.0,16.0,57,0.00,,,0.00,,2013-02-18 02:32:00,
2013-02-17 21:42:00,14.0,2.0,29.92,NW,321,6.0,16.0,57,0.00,,,0.00,,2013-02-18 02:42:00,
2013-02-17 21:52:00,14.0,2.0,29.93,West,277,5.0,10.0,57,0.00,,,0.00,,2013-02-18 02:52:00,
2013-02-17 22:02:00,14.0,2.0,29.93,NW,323,6.0,16.0,57,0.00,,,0.00,,2013-02-18 03:02:00,
2013-02-17 22:11:00,14.0,2.0,29.93,NW,323,6.0,16.0,57,0.00,,,0.00,,2013-02-18 03:11:00,
2013-02-17 22:22:00,14.0,2.0,29.93,NW,305,6.0,17.0,57,0.00,,,0.00,,2013-02-18 03:22:00,
2013-02-17 22:32:00,14.0,1.0,29.93,NW,320,7.0,18.0,56,0.00,,,0.00,,2013-02-18 03:32:00,
2013-02-17 22:42:00,14.0,1.0,29.93,NW,320,7.0,18.0,56,0.00,,,0.00,,2013-02-18 03:42:00,
2013-02-17 22:52:00,14.0,1.0,29.94,WNW,303,6.0,13.0,56,0.00,,,0.00,,2013-02-18 03:52:00,
2013-02-17 23:01:00,14.0,1.0,29.95,WNW,296,7.0,15.0,55,0.00,,,0.00,,2013-02-18 04:01:00,
2013-02-17 23:11:00,14.0,1.0,29.95,WNW,296,7.0,15.0,55,0.00,,,0.00,,2013-02-18 04:11:00,
2013-02-17 23:21:00,14.0,1.0,29.95,NW,314,5.0,14.0,55,0.00,,,0.00,,2013-02-18 04:21:00,
2013-02-17 23:32:00,14.0,0.0,29.96,NNW,327,1.0,15.0,54,0.00,,,0.00,,2013-02-18 04:32:00,
2013-02-17 23:42:00,14.0,0.0,29.96,NNW,327,1.0,15.0,54,0.00,,,0.00,,2013-02-18 04:42:00,
2013-02-17 23:52:00,14.0,0.0,29.97,NW,312,6.0,11.0,54,0.00,,,0.00,,2013-02-18 04:52:00,